Погода Марково

Погода Марково : погода сейчас, прогноз погоды и архив. Всё, что Вы хотите узнать о погоде Марково!

Хотите узнать прогноз погоды Марково? Тогда Вам сюда: Погода Марково

Поиск расширенной информации на нашем сайте:

Другие новости

Новости СМИ2

Главная страница сайта

Новости сайта

02.10.2013

Напоминаем, что на нашем новом сайте вы можете получить высокодетализированные прогнозы погоды по пунктам России, СНГ и мира (включающие важные для авиации метеовеличины, такие как направление и скорость ветра, видимость, явления погоды, количество и форма облачности, нижняя и верхняя граница облачности), а также ознакомиться с разнообразными материалами по авиационной метеорологии и подборкой полезных ссылок на эту тему.

Сайт Метеоцентр.Азия посвящён разработке технологий оптимизации авиаметеорологического обслуживания, включая проектирование и перспективное создание нескольких автоматизированных авиаметеорологических систем:
- система выпуска высокодетальных прогностических карт явлений погоды для нижнего воздушного пространства по России и ближнему зарубежью;
- система верификации прогнозов TAF (выпускаемых синоптиками официальных АМСГ РФ и ближнего зарубежья) и AUTOTAF (выпускаемых сайтом Метеоцентр.Азия) - выявление ошибок, онлайн-сопоставление с фактической погодой METAR, автоматическое внесение коррективов в прогнозы при резком отклонении фактической погоды от прогноза, подсчёт оправдываемости прогнозов по элементам и в целом;
- система обработки, анализа и отображения авиаметеорологической информации для применения провайдерами метеорологической информации.

Рекомендуем: Купить шарнирные наколенники.

Погода Марково - сегодня

Время (UTC), дата Ветер
(°,м/с) 
Видим.   Явления Облачность Т
(°С)
Тd
(°С)
f(%) Тe
(°С)
Pmin
(гПа)
dP
(гПа)
Po
(мм)
O2
(г/м3)
Тmin Tmax R s Состояние
почвы
12 25.02.17 020 (С) 7-12{15}  1000 м  сильн. снег  10/10 300 м 
[Ns]
-12.5 -13.8 90 -19  996.6  -5.4  745  316           
15 25.02.17 020 (С) 6-12{14}  2000 м  снег  10/10 300 м 
[Ns]
-11.3 -12.6 90 -17  992.2  -4.4  742  313           
18 25.02.17 020 (С) 5-11{13}  2000 м  снег  10/10 300 м 
[Ns]
-10.7 -12 90 -16  991.2  -1  741  312  -15.7    96  равномерный
сухой снег
100% 
21 25.02.17 030 (СВ) 3-6{13}  2000 м  снег  10/8 300 м средняя 
[Frnb|As op]
-10.1 -11.4 90 -13  993.3  2.1  743  312           
00 26.02.17 010 (С) 2{06}  4000 м  слаб. снег  10/3 300 м средняя 
[Frnb|Ac As]
-9.5 -11.1 88 -11  997.3  746  312           
03 26.02.17 тихо () {04}  2000 м  снег  10/3 300 м средняя 
[Frnb|As op]
-9 -10.1 92 -9  1000.5  3.2  748  313           
06 26.02.17 210 (ЮЗ) 2{05}  4000 м  слаб. снег  10/5 300 м средняя 
[Frnb|As op]
-10.1 -11.4 90 -12  1003.7  3.2  750  315    -8.9     
09 26.02.17 230 (ЮЗ) 3{06}  4000 м  слаб. снег  10/0 средняя, верхняя 
[Ac trans|Cs]
-12.5 -13.8 90 -16  1006.4  2.7  752  319           
12 26.02.17 220 (ЮЗ) 2{07}  4000 м  слаб. снег  10/0 средняя 
[As op]
-13.2 -15.2 85 -15  1009.2  2.7  755  321           
15 26.02.17 190 (Ю) 2{05}  4000 м  слаб. снег  10/0 средняя, верхняя 
[Ac trans|Cs]
-15.8 -17.7 85 -18  1011.2  756  325           
18 26.02.17 260 (З) 3{06}  4000 м  слаб. снег  10/0 средняя 
[Ac As]
-14.2 -16.9 80 -18  1013.1  1.9  757  323  -18.8    0.6  96  равномерный
сухой снег
100% 
21 26.02.17 240 (ЮЗ) 2{06}  4000 м  слаб. снег  10/3 1000 м средняя, верхняя 
[Sc|Ac trans|Cs]
-14.8 -17.5 80 -17  1015.7  2.6  759  325           
00 27.02.17 230 (ЮЗ) 3{05}  20000 м  {снег}  9/0 средняя, верхняя 
[Ac trans|Cs]
-14.6 -19.7 65 -18  1018.2  2.5  761  326           
03 27.02.17 260 (З) 6{09}  20000 м  позёмок  10/0 средняя, верхняя 
[Ac trans|Cs]
-14.6 -19.7 65 -21  1020.2  763  326           
06 27.02.17 250 (З) 5-8{12}  20000 м  позёмок  9/0 средняя, верхняя 
[Ac trans|Cc]
-17.7 -23.6 60 -24  1023.5  3.2  765  331    -13.8  0.2     
09 27.02.17 260 (З) 3{08}  20000 м    6/0 средняя, верхняя 
[Ac trans|Ci fib]
-21.4 -26.2 65 -26  1027  3.5  768  337           
12 27.02.17 260 (З) 3{06}  20000 м    8/0 верхняя 
[Cs]
-21.3 -27 60 -26  1030.4  3.4  770  338           
15 27.02.17 230 (ЮЗ) 3{05}  20000 м    4/0 средняя, верхняя 
[Ac trans|Ci fib]
-25.5 -30.2 65 -31  1033.4  2.9  773  345           
18 27.02.17 060 (СВ) 1{05}  20000 м    4/0 верхняя 
[Ci fib]
-29.3 -33.1 70 -30  1036.4  2.9  775  352  -29.3      95  равномерный
сухой снег
100% 
21 27.02.17 330 (СЗ) 2{03}  20000 м    3/0 верхняя 
[Ci fib]
-32.8 -35.7 75 -37  1039.7  3.2  777  358  -35.1         
00 28.02.17 030 (СВ) 1{03}  20000 м    3/0 верхняя 
[Ci fib]
-19.7 -28.6 45 -20  1041.9  2.5  779  340           
03 28.02.17 350 (С) 2{04}  20000 м    6/0 средняя, верхняя 
[Ac trans|Ci sp]
-20.4 -29.3 45 -23  1043.4  1.4  780  342           
06 28.02.17 010 (С) 2{04}  4000 м  слаб. снег  10/3 1000 м средняя, верхняя 
[Sc|Ac trans|Cs]
-23.2 -29.4 57 -26  1044.5  1.2  781  346    -19.4  0.0     
09 28.02.17 010 (С) 2{03}  20000 м  {снег}  10/3 1000 м средняя, верхняя 
[Sc|Ac trans|Cs]
-23.7 -28.4 65 -27  1045.3  0.7  781  347           
12 28.02.17 360 (С) 3{05}  20000 м  {снег}  10/0 средняя 
[Ac und]
-23.7 -27.6 70 -28  1046.1  0.8  782  347           
Время (UTC), дата Ветер
(°,м/с) 
Видим.   Явления Облачность Т
(°С)
Тd
(°С)
f(%) Тe
(°С)
Pmin
(гПа)
dP
(гПа)
Po
(мм)
O2
(г/м3)
Тmin Tmax R s Состояние
почвы

Для получения пояснительной информации подведите курсор к названию столбца.

ПОГОДА Марково - архив

Всё, что Вы хотите узнать о погоде Марково - удобно и подробно!

Выберите нужную дату (начиная с 1 января 2015* года) и нажмите кнопку "Найти".
Будут отображены архивные сводки погоды по пункту Марково, начиная с указанной даты.


Отображать данные в формате CSV (для использования в таблицах Excel)


Внимание! Наш архив погоды предназначен исключительно для личного некоммерческого использования в познавательных целях. Если Вам необходимы официальные справки о состоянии погоды (для производственных, юридических, коммерческих и т.п. целей), обращайтесь в органы Росгидромета.

*Примечание: данная дата относится к архиву по метеостанциям СССР (Россия, СНГ, Балтия).
Архив по метеостанциям Зарубежной Европы и Азии (кроме Китая) хранится 10 дней, по другим регионам земного шара (Китай, Африка, Америка, Австралия, Океания) - 1 день.

Марково - район местоположения метеостанции


Название, широта, долгота, высота метеостанции:
Марково 64.7°ш. 170.4°д. 26 м над ур. моря [Российская Федерация]

Дополнительная информация

В oтличие oт бoльшинства пoгoдных сайтoв мы публикуем пoдрoбную метеoинфoрмацию в детальнoм прoфессиoнальнoм фoрмате.

Характеристики температуры и влажнoсти вoздуха измеряются на высoте 2 м в тени вдали oт зданий и деревьев.
Скoрoсть ветра измеряется на высoте 10 м (на урoвне рoста челoвека скoрoсть ветра ниже в 1.5-2 раза). Если метеoстанция нахoдится в гoрoде или в лесу, тo скoрoсть ветра занижена на 2-4 м/с пo сравнению с oткрытым местoм. Скoрoсть ветра над акватoриями крупных рек и oзёр, а также на вершинах хoлмoв на 2-5 м/с выше, чем в oбычных услoвиях.
Атмoсфернoе давление в разных тoчках местнoсти мoжет значительнo oтличаться oт давления на метеoстанции, в зависимoсти oт услoвий рельефа (при пoдъёме на 10 м давление пoнижается примернo на 1 мм рт.ст.).